"Pseudo-MPEC" for Sar2518

Created 2020 Nov 22 21:07:34 UT using Find_Orb

Click here for an explanation of pseudo-MPECs

 
 Astrometry: 
     Sar2518  C2020 11 22HU9k9bR(%QyXp/2Astrometry:%-*xO7cCgI:b26U4EnZ^0fA5=@K88
     Sar2518  C2020 11 22Hg)Z(/Af-qWJnxM.`:DoNjdb(tNIdFC23MFo\g[C8lG,kN:+h9!=K88
     Sar2518  C2020 11 22]eY?_.C#Tf5g957O#rLo?sV0Hp;6c-[g@AucD)O4JCIar4EvSr,cK88
     Sar2518  C2020 11 22tV$e@uLtV9:QhWPKadv^g]VnqUDJ(Pg,FAun!Qao]*'3UhQQL5\fK88
     Sar2518  C2020 11 22`l0et:RP!Rr'Mf(%MRWYO3Gredacted;MD-c1nUu3O6eZ7rRrErUK88
     Sar2518  C2020 11 22$E-@WfoDguntJW_3ZQJpv;h(4hilP3Wp(U]Xq+,Abk9O%DFPoBk7K88
     Sar2518  C2020 11 22KY%%Hr%R_6Hgk+y=j_8-P,\V*\`y%+k*ep/gBi@'%BIK(hrbZ%lfK88
     Sar2518  C2020 11 22Kxb$WHoag@KT:ND?KGjS#2KeG+X3GZ8Ew=WE22,C@I7IGWNH!'KhK88
     Sar2518  C2020 11 22R75]I^];^42;YD3E+1@THC!Yq#[RN#*?lBhnZc:uYNtGM%XG3D4`K88
     Sar2518  C2020 11 22okuG?x,_DN'lbaV'+:*Ya1^sYK#9:M*5tJgZc1bjWKRgR.sll,.#K88
     Sar2518  C2020 11 22E[\p[:0Og:;d+vMp^rNc$o;2Bb$OJ't+jA2TpSo5n3tD;E]3MF7BK88
     Sar2518  C2020 11 22#e$[:(h342.FgYy\nHIBFdg)wn*h7FEV$ZJ,Q8s?$(fk;?'/gQ+4K88
     Sar2518 KC2020 11 22oMqGA!52!5hYI8eT*9t/u`T6%6yGA*56W`]SMe=bTweF@+U:n*T@204
     Sar2518 KC2020 11 2238?4Y$Ip50-hLZ.Cv@b7\GFPoQ*rq=dkRDIUn8?![k6ii2_cN!d#204
     Sar2518 KC2020 11 22G:rRDD#/nn-q#U0C0EhF4W3sAaNuLQBf$NeHR'1OrRM\u^'d*ouq204
     Sar2518  C2020 11 22BYp8_4%cD(;Knofg-:#(x^F\SBTO^gFP?_\\*QU2F0yh=mkyEPF'K88
     Sar2518  C2020 11 22]h5331(5*hKfri='=kU+.w.G'TNdvdwV@0AIyKkJ7=n.xJLj%1x'K88
     Sar2518  C2020 11 22b`(inVTjt+!;pBInct_hH$8NHq_GRHaZ7VjE?+!Z!xRJl;x+u@SyK88
     Sar2518  C2020 11 222[]A#5CdI4@nZA3evG@tyD@:CL5cYhv;jY6mIYXLmR@'sSFJ@DSeK88
     Sar2518  C2020 11 22em.k\KJ%!?I5U=^hOd6[+=U8Ym^#IhH13*7^/8W3MgPeUYPk:5cIK88
     Sar2518  C2020 11 22'[(N?`OC(w.'ETk^1XexbQ.A[S5J9+wuZq[/:`ZAH4f,yDqx,`M7K88
     Sar2518  C2020 11 229=;V0G-+'$Ajr_Pusqwa^)`(T851xH83HCeU)l4$6`=f56]2wuo]K88
     Sar2518 KC2020 11 22$JPm5N/7fCUh@@x#f2'LDh4Ne!DIYHSL7'6NH3*6-J41k8m'76CKW34
     Sar2518 KC2020 11 22pq7Ko:_qm1.N!]v4A3BE!S6E*]\tbDQSoGmT:@'hAde0_R,*-9AcW34
     Sar2518 KC2020 11 22^%FuyL]C$6l%]GwQA$?bB^L'jX2xKSa02._14v.82T=IUovss_pXW34
     Sar2518 KC2020 11 22.17586604 31 19.50 +16 59 52.8    ~BM4b 18.23GVNEOCPI52
     Sar2518 KC2020 11 22.17635904 31 18.61 +16 59 52.3    ~BM4b 17.98GVNEOCPI52
     Sar2518 KC2020 11 22.17685204 31 17.72 +16 59 51.4    ~BM4b 18.16GVNEOCPI52
     Sar2518 KC2020 11 22ewHDcobYNp9^:!w0n)ec)clickb7W!-5f^7dH8ZTmG$f:bZp9;.DV01
     Sar2518 KC2020 11 22kK(-_.INub?90Ws(eAOi-jRA:E\@S'eYcsuH[yvVaopKMCSl)\%MV01
     Sar2518  C2020 11 22.38925 04 24 49.04 +16 53 21.1    ~BM9q 18.3  rNEOCP718
     Sar2518  C2020 11 22.39023 04 24 47.34 +16 53 18.8    ~BM9q 18.5  rNEOCP718
     Sar2518  C2020 11 22.39119 04 24 45.56 +16 53 16.6    ~BM9q 18.0  rNEOCP718
     Sar2518  C2020 11 22.39216 04 24 43.80 +16 53 15.7    ~BM9q 18.2  rNEOCP718
     Sar2518 hC2020 11 22hGg3]aALT'yO)[(YkiO;n9HHW+*72L^S:A:5`@iA@K!G*ljYb_5!L01
     Sar2518 hC2020 11 22a^XFBo2o-ec)YxCygds+5N,@uQy]j5^+spQ;@cdM(M0ahereKS:8L01
     Sar2518 hC2020 11 22hxS^sk5MNYbfd5];*WXo^:voUHp:@8ltT+GFtNNT6;%R40cFYGaUL01
     Sar2518 hC2020 11 22pWsfL9$g3#i3x=aR.VJgb^wK_VMfCCp]od;h+NkNail#uT3FAv^sL01
     Sar2518 hC2020 11 22!C)NCoL:9BQb`l*luv@6?fm;t';#yiXwr-th3h[/?CpfNa$\wC#kL01
     Sar2518 hC2020 11 228wL-m)a\a^UH2w[!XEt!;`)W!-mS+pxwHJ+;SlR:*a=p^xKCFq8`L01
     Sar2518 KC2020 11 22.78580 04 13 00.67 +16 38 26.4    ~BMJM 17.8 GVNEOCP970
     Sar2518 KC2020 11 22.78919 04 12 54.39 +16 38 18.8    ~BMJM 17.5 GVNEOCP970
     Sar2518 KC2020 11 22!Ibb=omgmki=P_JB7R[v64,1H#$b$MJgD?4ff%U)U:-Q+L1]-bMu470
     Sar2518  C2020 11 22dY-f]1N;8y\]rqI_PXB`MPk2#pc?w9)WoneC/#vl:I==bmv*SIZEK88
     Sar2518 KC2020 11 2256+TA]GJ:Gsb2pqim=*pZGXNCb[Fw\g(AuI$BMri4Uq,E#O4^vlf470
     Sar2518  C2020 11 22t.Gt+(VM0RH40k;]4qj3WiQ5?sn19B?:=%BMR-YTujE6'4,RXs0GK88
     Sar2518  C2020 11 22$E?Crg.e0N%M-T_/49*X9t_'[7_T!`Y%VLlekVmq)M89\L,@*EnCK88
     Sar2518 KC2020 11 22.81443904 12 07.83 +16 37 23.1    ~BMJq 18.3 GVNEOCPJ95
     Sar2518 KC2020 11 22.81646804 12 04.09 +16 37 19.0    ~BMJq 18.2 GVNEOCPJ95
     Sar2518 KC2020 11 22.81851104 12 00.29 +16 37 14.2    ~BMJq 18.4 GVNEOCPJ95
     Sar2518 KC2020 11 22LO4e^jKqj*MqQlb-_3k9`)RBU_9^e6e:$PRnVI9`w07iry),jBFsZ99
     Sar2518 KC2020 11 22OC(4_uL$17?5Bq^xuw8r-*;Y)x?sufFJ/N8HIdM4VF#xqaPl^hkLZ99
     Sar2518 KC2020 11 22Z%/2D\-0(Ws0oBY4oGj;Khf2Yq`wg1AvD@YQP;cJL2F+F;Sj0XXvZ99
     Sar2518 KC2020 11 22jP/;k-2XrS.sgH$]1(/CN:DCG4-%G)JwmeBTQTL+ciX*76gvEFkCB49
     Sar2518 KC2020 11 22ilXvL%ZvVM;y'mS-Rpvd!gUhCs?Ct0fcD`NIt$Z!@Y(gfi?]@]^-B49
     Sar2518 KC2020 11 228+fEN`U:#29=`7?v8_UtvdyY*\=kOCv;C$UxsX02vKN3j%)Zc0biZ99
     Sar2518 KC2020 11 22Hx`nM^DB'Iw%B0jT,o\s_aSBvT+,rmvuE6Cstg;!6m[XW%fct#63B49
     Sar2518 KC2020 11 22djU:x:GJawy,gB%b0u=BR3yWyQV,APM5Ng6yNgx[Uu:=+i4_egrdL39
     Sar2518 KC2020 11 22DLZP(gH#=v9FcOylqQ'LLuC1eWqPDioC;OMDpu!hq:h5Dg';bAE]B49
     Sar2518 KC2020 11 22dVHAMS@=Hc2Qj0e2j]XL$E-s=o:bRX?UTFbt=07Pfor;':=Fa]-?L39
     Sar2518 KC2020 11 22/e961SxfqM@5:[y+e:fX2,?pm9%31vLG-Y%EqRe5AYK@dj[Ppm=WL39
     Sar2518 KC2020 11 22f3$Yl7kh=lPwlUBdbbS)AX$`I9js,-*Lt/`gQUC+;6;7TWy-:Af[595
     Sar2518 KC2020 11 225WKb=YmD-*tV5Pt25iH*'VadV!*N\?`.[#AN!N*_IatS[-B%/M,fC77
     Sar2518 KC2020 11 22h2*D44sJ-YXh6Sql(!Q+b8xgZ#Pa/pPuNch!4u4F%5q\6gS\%+I9595
     Sar2518 KC2020 11 22.!qJ+FK3095xi#D-(DvSZf0G?lJp@2Ju]t*E9n9(F\,jChi?BI+,C77
     Sar2518 KC2020 11 22KKxQOnKy9]8t++VQgB0_e)[h5g9:eEC4J_RK_E+v8Y(C6Ye,UOk@595
     Sar2518 KC2020 11 22YL/H9bYG+mrEyC*E(Z7bbZxBy^wOPrb'explanation0p)LO+1B#C77

Station data:
(204) Schiaparelli Observatory  (N45.867933 E8.770800)  Italy.  Observer L.
   Buzzi. 0.60-m f/4.64 Newtonian + CCD.
(470) Ceccano  (N41.570282 E13.327560)  Italy. 0.28-m Schmidt-Cassegrain.
(595) Farra d'Isonzo  (N45.915734 E13.525780)  Italy.  Observers L.
   Bittesini, F. Fabris, E. Pettarin, F. Piani. Measurer E. Pettarin. 0.30-m
   f/4.5 reflector + CCD.
(718) Tooele  (N40.641408 W112.295800)  US/Utah.  Observer P. Wiggins. 0.35-m
   f/5.5 Schmidt-Cassegrain + CCD.
(970) Chelmsford  (N51.744716 E0.495400)  UK.  Observer N. James. 0.28-m f/10
   Schmidt-Cassegrain + CCD.
(B49) Paus Observatory, Sabadell  (N41.551035 E2.112500)  Spain.
(C77) Bernezzo Observatory  (N44.385250 E7.453500)  Italy.
(I52) Steward Observatory, Mt. Lemmon Station  (N32.442547 W110.788920)
   US/Arizona.  Observers T. A. Pruyne, B. M. Africano, E. J. Christensen, G.
   A. Farneth, D. C. Fuls, A. R. Gibbs, A. D. Grauer, H. Gröller, J. A.
   Johnson, R. A. Kowalski, S. M. Larson, G. J. Leonard, D. Rankin, R. L.
   Seaman, F. C. Shelly. 1.0-m reflector + CCD.
(J95) Great Shefford  (N51.474969 W1.447003)  UK.  Observer P. Birtwhistle.
   0.40-m f/6.0 Schmidt-Cassegrain + CCD.
(K88) GINOP-KHK, Piszkéstető  (N47.917622 E19.893600)  Hungary.  Observer K.
   Sárneczky. 0.60-m Schmidt + CCD.
(L01) Višnjan Observatory, Tičan  (N45.290900 E13.749300)  Croatia.
   Observers K. Korlević, E. Pettarin. Measurer E. Pettarin. 1.0-m f/2.9
   reflector + CCD.
(L39) Osservatorio Spica, Signa  (N43.789205 E11.040310)  Italy.
(V01) Mountainville Observatory, Alpine  (N40.448904 W111.760890)  US/Utah.
(W34) Squirrel Valley Observatory, Columbus  (N35.225393 W82.154700)
   US/North Carolina.  Observer R. L. Flynn. 0.35-m f/1.9 Schmidt-Cassegrain
   + CCD.
(Z99) Clixby Observatory, Cleethorpes  (N53.546062 W0.021260)  UK.

Orbital elements:  Sar2518
   Perihelion 2021 Feb 18.765150 +/- 0.0563 TT = 18:21:48 (JD 2459264.265150)
Epoch 2020 Nov 22.0 TT = JDT 2459175.5   Earth MOID: 0.0100   Ve: 0.0013
M 192.87067096 +/- 0.045            Me: 0.0159                AutoNEOCP
n   1.88282596 +/- 0.000938         Peri.  172.34284 +/- 0.012
a   0.64952508 +/- 0.000216         Node    64.08353 +/- 0.0032
e   0.6092995 +/- 0.000661          Incl.    4.01924 +/- 0.009
P   0.52/191.20d           H 24.4   G  0.15   U  8.1  
q 0.25376976 +/- 0.000513    Q 1.04528041 +/- 8.61e-5
From 67 observations 2020 Nov. 22 (19.5 hr); mean residual 0".38
Residuals in arcseconds: 
201122 K88  .29+  .31-    201122 W34  .66-  .07-    201122 K88  1.1+  .25+    
201122 K88  .14+  .06+    201122 W34  .38-  .01-    201122 J95  .09-  .21-    
201122 K88  .09-  .11-    201122 I52  .28+  .17-    201122 J95  .19+  .19+    
201122 K88  .09-  .43+    201122 I52  .24+  .06+    201122 J95  .00   .08-    
201122 K88  .65+  .24+    201122 I52  .20+  .12-    201122 Z99  .26-  .04-    
201122 K88  .31-  .52-    201122 V01  .34-  .23+    201122 Z99  .19-  .17+    
201122 K88  .54+  .07-    201122 V01  .33+  .13-    201122 Z99  .14-  .22-    
201122 K88  .30+  .35-    201122 718  1.3-  .17+    201122 B49  .01-  .57+    
201122 K88  .09-  .72+    201122 718  .23+  .16-    201122 B49  .02-  .21+    
201122 K88  .34-  .17-    201122 718  .06+  .43-    201122 Z99  .01-  .29+    
201122 K88  .04-  .36+    201122 718  .43+  .62+    201122 B49  .35+  .15-    
201122 K88  1.1+  .32-    201122 L01  .03-  .13-    201122 L39  .14+  1.1-    
201122 204  .30-  .05-    201122 L01  .05-  .05-    201122 B49  .56-  .13+    
201122 204  .21-  .11+    201122 L01  .11+  .08-    201122 L39  .46-  .52+    
201122 204  .14-  .08-    201122 L01  .09+  .19-    201122 L39  .45-  .41+    
201122 K88  .94+  .50+    201122 L01  .04+  .11-    201122 595  .24-  .10-    
201122 K88  1.1+  .52+    201122 L01  .00   .15+    201122 C77  .29+  .00     
201122 K88  .05-  .14+    201122 970  .33+  .15-    201122 595  .12+  .53-    
201122 K88  .36+  .09+    201122 970  .10-  .37-    201122 C77  .12-  .09-    
201122 K88  1.1+  .01+    201122 470  .62+  .55+    201122 595  .49-  .25+    
201122 K88  .20-  .56-    201122 K88  .39+  .50-    201122 C77  .26-  .14-    
201122 K88  .36+  .03+    201122 470  .21+  .56+    
201122 W34  .41-  .07-    201122 K88  .19-  .38+    

Ephemerides (geocentric):
Date (UTC) HH   RA              Dec         delta   r     elong  mag " sig PA
---- -- -- --  -------------   -----------  ------ ------ -----  --- ---- ---
